Location: Unspecified
(0.0000°N, 0.0000°E)
Time: 17:49:25
(UTC+00:00)

Tiros 1 despin weight - All Passes

Search period start: 18 January 2020 00:00
Search period end: 28 January 2020 00:00
Orbit: 593 x 643 km, 48.2° (Epoch: 18 January)

Date Brightness Start Highest point End Pass type
(mag) Time Alt. Az. Time Alt. Az. Time Alt. Az.
18 Jan - 10:56:53 10° SW 11:01:18 70° NW 11:05:46 10° NNE daylight
18 Jan - 21:25:35 10° NNE 21:28:15 15° NE 21:30:52 10° E night (unlit)
18 Jan - 23:05:18 10° WNW 23:09:41 42° SW 23:14:01 10° SSE night (unlit)
19 Jan - 09:32:57 10° S 09:36:26 22° SE 09:39:56 10° ENE daylight
19 Jan - 11:14:09 10° WSW 11:17:48 25° NW 11:21:29 10° N daylight
19 Jan - 21:40:28 10° NNW 21:44:48 38° NE 21:49:05 10° ESE night (unlit)
19 Jan - 23:23:19 10° W 23:26:12 16° SW 23:29:04 10° SSW night (unlit)
20 Jan - 09:48:33 10° SSW 09:52:56 63° SE 09:57:21 10° NE daylight
20 Jan - 21:56:38 10° NW 22:01:17 77° SW 22:05:53 10° SE night (unlit)
21 Jan - 08:26:02 10° SSE 08:28:01 13° SE 08:30:00 10° ESE daylight
21 Jan - 10:05:12 10° WSW 10:09:24 44° NW 10:13:40 10° NNE daylight
21 Jan - 20:32:44 10° N 20:36:21 22° NE 20:39:58 10° ESE night (unlit)
21 Jan - 22:13:47 10° WNW 22:17:46 28° SW 22:21:44 10° S night (unlit)
22 Jan - 08:40:33 10° SSW 08:44:33 34° SE 08:48:34 10° ENE daylight
22 Jan - 10:23:07 10° W 10:25:57 17° NW 10:28:47 10° N daylight
22 Jan - 20:48:16 10° NNW 20:52:53 59° NE 20:57:26 10° SE night (unlit)
22 Jan - 22:33:13 10° WSW 22:34:20 11° SW 22:35:27 10° SW night (unlit)
23 Jan - 08:56:37 10° SW 09:01:03 83° NW 09:05:29 10° NE daylight
23 Jan - 19:25:46 10° NNE 19:27:54 13° NE 19:30:02 10° ENE visible
23 Jan - 21:04:50 10° NW 21:09:21 49° SW 21:13:51 10° SSE night (unlit)
24 Jan - 07:33:00 10° S 07:36:09 19° SE 07:39:20 10° E daylight
24 Jan - 09:13:42 10° WSW 09:17:31 29° NW 09:21:22 10° N daylight
24 Jan - 19:40:15 10° NNW 19:44:28 33° NE 19:48:39 10° ESE visible
24 Jan - 21:22:34 10° W 21:25:52 19° SW 21:29:10 10° S night (unlit)
25 Jan - 07:48:22 10° SSW 07:52:40 52° SE 07:56:58 10° NE daylight
25 Jan - 09:33:03 10° WNW 09:34:05 11° NW 09:35:08 10° NW daylight
25 Jan - 19:56:15 10° NW 20:00:56 90° W 20:05:37 10° SE visible
26 Jan - 06:26:42 10° SE 06:27:44 11° SE 06:28:46 10° ESE daylight
26 Jan - 08:04:51 10° SW 08:09:09 52° NW 08:13:27 10° NNE daylight
26 Jan - 18:32:40 10° N 18:36:01 19° NE 18:39:21 10° E visible
26 Jan - 20:13:14 10° WNW 20:17:26 33° SW 20:21:37 10° SSE visible
27 Jan - 06:40:28 10° S 06:44:18 29° SE 06:48:06 10° ENE daylight
27 Jan - 08:22:31 10° W 08:25:39 19° NW 08:28:48 10° N daylight
27 Jan - 18:48:00 10° NNW 18:52:32 50° NE 18:57:04 10° SE visible
27 Jan - 20:31:52 10° WSW 20:33:58 13° SW 20:36:05 10° SSW visible
